"Pseudo-MPEC" for p00038

Created 2025 Apr 23 22:31:11 UT using Find_Orb

Click here for an explanation of pseudo-MPECs

 
 Astrometry: 
     p00038 * C2025 04 03.60647017 13 20.823+35 34 12.36   ~43N2 21.93wXNEOCPF52
     p00038   C2025 04 03.61935217 13 20.809+35 34 11.29   ~43N2 21.79wXNEOCPF52
     p00038   C2025 04 03.62582517 13 20.816+35 34 10.76   ~43N2 21.75wXNEOCPF52

Station data:
(F52) Pan-STARRS 2, Haleakala  (N20.707382 W156.255910)  US/Hawaii.
   Observers J. Bulger, T. Dukes, T. Lowe, A. Schultz, M. Willman. Measurers
   K. Chambers, S. Chastel, T. de Boer, L. Denneau, J. Fairlamb, H.
   Flewelling, M. Huber, C.-C. Lin, E. Magnier, Y. Ramanjooloo, R. Wainscoat,
   R. Weryk. 1.8-m Ritchey-Chrétien + CCD.

Orbital elements:  p00038
   Perihelion 2025 Jun 25.04280 +/- 61.4 TT =  1:01:38 (JD 2460851.54280)
Epoch 2025 Apr  4.0 TT = JDT 2460769.5   Earth MOID: 0.1482      AutoNEOCP
M 324.82014298 +/- 45               (J2000 ecliptic)
n   0.42879881 +/- 0.375            Peri.  212.66096 +/- 90
a   1.74167452 +/- 1.02             Node    56.84654 +/- 39
e   0.3598536 +/- 0.287             Incl.   43.99531 +/- 15
P   2.299/839.539d         H 20.17  G  0.15   U 12.1  SR
q 1.11492663 +/- 0.422    Q 2.36842240 +/- 68.6
From 3 observations 2025 Apr. 3 (27.9 min); mean residual 0".04
Residuals in arcseconds: 
250403 F52  .06+  .00     250403 F52  .07-  .02-    250403 F52  .04+  .00     

Ephemerides (geocentric):
Date (UTC) HH   RA             Dec           delta  r     elong  mag " sig PA
---- --------  ------------   ------------  ------ ------ -----  --- --------
2025 04 23 23  16 57 37.029   +32 51 42.76  .41741 1.2604 118.7 20.5  63d 113
2025 04 24 00  16 57 32.048   +32 50 53.52  .41689 1.2602 118.7 20.5  63d 113
2025 04 24 01  16 57 27.049   +32 50 04.08  .41637 1.2600 118.8 20.5  63d 113
2025 04 24 02  16 57 22.033   +32 49 14.42  .41585 1.2598 118.8 20.5  63d 113
2025 04 24 03  16 57 16.999   +32 48 24.56  .41533 1.2597 118.8 20.5  63d 113
2025 04 24 04  16 57 11.947   +32 47 34.50  .41481 1.2595 118.9 20.5  63d 113
2025 04 24 05  16 57 06.878   +32 46 44.22  .41430 1.2593 118.9 20.5  63d 113
2025 04 24 06  16 57 01.791   +32 45 53.73  .41378 1.2591 118.9 20.5  63d 113
2025 04 24 07  16 56 56.686   +32 45 03.03  .41326 1.2590 119.0 20.5  63d 113
2025 04 24 08  16 56 51.564   +32 44 12.13  .41274 1.2588 119.0 20.5  63d 113
2025 04 24 09  16 56 46.423   +32 43 21.00  .41222 1.2586 119.0 20.5  63d 113
2025 04 24 10  16 56 41.265   +32 42 29.67  .41171 1.2585 119.1 20.4  63d 113
2025 04 24 11  16 56 36.089   +32 41 38.12  .41119 1.2583 119.1 20.4  63d 113
2025 04 24 12  16 56 30.895   +32 40 46.35  .41067 1.2581 119.2 20.4  63d 113
2025 04 24 13  16 56 25.682   +32 39 54.37  .41015 1.2579 119.2 20.4  63d 113
2025 04 24 14  16 56 20.452   +32 39 02.17  .40963 1.2578 119.2 20.4  63d 113
2025 04 24 15  16 56 15.204   +32 38 09.75  .40912 1.2576 119.3 20.4  63d 113
2025 04 24 16  16 56 09.937   +32 37 17.12  .40860 1.2574 119.3 20.4  63d 113
2025 04 24 17  16 56 04.652   +32 36 24.26  .40808 1.2572 119.3 20.4  63d 113
2025 04 24 18  16 55 59.349   +32 35 31.18  .40757 1.2571 119.4 20.4  63d 113
2025 04 24 19  16 55 54.028   +32 34 37.89  .40705 1.2569 119.4 20.4  63d 113
2025 04 24 20  16 55 48.688   +32 33 44.36  .40653 1.2567 119.5 20.4  63d 113
2025 04 24 21  16 55 43.330   +32 32 50.62  .40601 1.2566 119.5 20.4  63d 113
2025 04 24 22  16 55 37.953   +32 31 56.65  .40550 1.2564 119.5 20.4  63d 113
2025 04 24 23  16 55 32.558   +32 31 02.45  .40498 1.2562 119.6 20.4  63d 113
2025 04 25 00  16 55 27.145   +32 30 08.03  .40446 1.2560 119.6 20.4  63d 113
2025 04 25 01  16 55 21.712   +32 29 13.38  .40395 1.2559 119.7 20.4  63d 113
2025 04 25 02  16 55 16.262   +32 28 18.51  .40343 1.2557 119.7 20.4  63d 113
2025 04 25 03  16 55 10.792   +32 27 23.40  .40291 1.2555 119.7 20.4  63d 113
2025 04 25 04  16 55 05.304   +32 26 28.06  .40240 1.2554 119.8 20.4  63d 113
2025 04 25 05  16 54 59.797   +32 25 32.50  .40188 1.2552 119.8 20.4  63d 113
2025 04 25 06  16 54 54.272   +32 24 36.70  .40137 1.2550 119.8 20.4  63d 113
2025 04 25 07  16 54 48.727   +32 23 40.66  .40085 1.2548 119.9 20.4  63d 113
2025 04 25 08  16 54 43.164   +32 22 44.39  .40033 1.2547 119.9 20.4  63d 113
2025 04 25 09  16 54 37.582   +32 21 47.89  .39982 1.2545 120.0 20.4  63d 113
2025 04 25 10  16 54 31.980   +32 20 51.15  .39930 1.2543 120.0 20.4  63d 113
2025 04 25 11  16 54 26.360   +32 19 54.18  .39879 1.2542 120.0 20.4  63d 113
2025 04 25 12  16 54 20.720   +32 18 56.96  .39827 1.2540 120.1 20.4  63d 113
2025 04 25 13  16 54 15.062   +32 17 59.51  .39776 1.2538 120.1 20.4  63d 113
2025 04 25 14  16 54 09.384   +32 17 01.81  .39724 1.2537 120.2 20.4  63d 113
2025 04 25 15  16 54 03.687   +32 16 03.88  .39672 1.2535 120.2 20.3  63d 112
2025 04 25 16  16 53 57.971   +32 15 05.70  .39621 1.2533 120.2 20.3  63d 115
2025 04 25 17  16 53 52.235   +32 14 07.28  .39569 1.2531 120.3 20.3  63d 115
2025 04 25 18  16 53 46.481   +32 13 08.61  .39518 1.2530 120.3 20.3  63d 115
2025 04 25 19  16 53 40.706   +32 12 09.70  .39466 1.2528 120.4 20.3  63d 115
2025 04 25 20  16 53 34.912   +32 11 10.54  .39415 1.2526 120.4 20.3  63d 115
2025 04 25 21  16 53 29.099   +32 10 11.14  .39364 1.2525 120.4 20.3  63d 115
2025 04 25 22  16 53 23.266   +32 09 11.49  .39312 1.2523 120.5 20.3  63d 115